Regional Weather Roundup
Issued by NWS

Home | Current Version | Previous Version | Graphics & Text | Print | Product List | Glossary On
Versions: 1 2 3 4 5 6 7 8 9 10 11 12 13 14 15 16 17 18 19 20 21 22 23 24 25 26 27
000
ASUS45 KTFX 060810
RWRMT
MONTANA REGIONAL WEATHER ROUNDUP
NATIONAL WEATHER SERVICE GREAT FALLS MT
200 AM MDT FRI MAY 06 2016

NOTE: "FAIR" INDICATES FEW OR NO CLOUDS BELOW 12000 FEET WITH NO
SIGNIFICANT WEATHER AND/OR OBSTRUCTIONS TO VISIBILITY.

MTZ001>007-043-060900-
WEST OF THE DIVIDE

CITY           SKY/WX    TMP DP  RH WIND       PRES   REMARKS
KALISPELL      CLOUDY    57  41  55 N18       30.02R
MISSOULA       CLOUDY    54  47  77 CALM      30.01R
BUTTE          MOCLDY    51  39  63 SE9       30.05R
MULLAN PASS    HVY RAIN  45  44  97 SE10G21     N/A  FOG
ANACONDA         N/A     52  37  58 N15G24    30.05R
DEER LODGE       N/A     54  37  54 N9        30.09R
EUREKA           N/A     52  45  76 E3        30.08R
HAMILTON         N/A     59  45  58 NW6       29.97R
LIBBY            N/A     55  50  82 CALM      30.03R
PLAINS           N/A     57  52  84 CALM      30.03R
$$

MTZ008-052>055-060900-
SOUTHWEST MONTANA

CITY           SKY/WX    TMP DP  RH WIND       PRES   REMARKS
BOZEMAN        PTCLDY    54  42  64 SW9       29.95R
DILLON         PTCLDY    55  39  54 NE15      29.95S
ENNIS          PTCLDY    52  39  62 NE12      30.03S
THREE FORKS      N/A     59  19  21 NW15      29.98R
TWIN BRIDGES     N/A     57  37  47 N25       29.94F
$$

MTZ009-010-012-014-046-048-049-054-060900-
EAST SLOPES AND CENTRAL MONTANA

CITY           SKY/WX    TMP DP  RH WIND       PRES   REMARKS
CUT BANK       CLOUDY    46  42  86 N10       30.19S
GREAT FALLS    CLOUDY    50  40  68 N15       30.16R
MALMSTROM AFB  LGT RAIN  51  43  76 N8        30.17R
HELENA         MOCLDY    54  38  54 NW13G21   30.08R
CHOTEAU          N/A     46  45  93 N12       30.19R
CONRAD           N/A     46  46 100 NW10      30.16F
$$

MTZ011-013-016-021-045-047-050-051-060900-
NORTH CENTRAL MONTANA

CITY           SKY/WX    TMP DP  RH WIND       PRES   REMARKS
HAVRE          LGT RAIN  52  46  80 E3        30.14R
LEWISTOWN      MOCLDY    53  43  68 NW10      30.08R
N BAR RANCH      N/A     59  41  51 NW10G17   30.07R
$$

MTZ017>020-022>027-061-062-060900-
NORTHEAST MONTANA

CITY           SKY/WX    TMP DP  RH WIND       PRES   REMARKS
GLASGOW        MOCLDY    60  41  49 N22G30    29.94R HAZE
JORDAN           N/A     62  42  47 N15       29.93R
SIDNEY         CLOUDY    66  39  37 NW14      29.83S
WOLF POINT     CLOUDY    65  44  46 N29G38    29.85R HAZE
POPLAR           N/A     63  45  51 N14       29.87R
SCOBEY           N/A     58  37  45 N16       29.93R
$$

MTZ028>42-056>058-060900-
SOUTHCENTRAL AND SOUTHEAST MONTANA

CITY           SKY/WX    TMP DP  RH WIND       PRES   REMARKS
BAKER          MOCLDY    55  45  68 CALM      29.86S
BILLINGS       CLOUDY    65  40  39 N16       29.91R
LIVINGSTON     CLOUDY    55  40  56 NW8       30.00R
MILES CITY     CLOUDY    64  46  52 CALM      29.85R
EKALAKA          N/A     64  40  41 SE3       29.88S
FORSYTH          N/A     64  45  48 CALM      29.86R
LAUREL           N/A     64  38  38 NW12      29.90R
ROUNDUP          N/A     63  38  39 N24       29.88R
$$

REGIONAL REPORTS...DAKOTAS

CITY           SKY/WX    TMP DP  RH WIND       PRES   REMARKS
WILLISTON      CLOUDY    62  42  47 NE7       29.83R
MINOT          PTCLDY    70  38  31 SW12      29.74S
DICKINSON      CLEAR     60  44  55 W6        29.80R
BEACH            N/A     55  41  58 NW12      29.88R
CROSBY           N/A     59  41  51 NW18G24   29.85S
TIOGA            N/A     64  37  36 NW15G21   29.87R
WATFORD CITY     N/A     57  45  62 CALM      29.83R
BISMARCK       CLEAR     55  47  74 CALM      29.78S
GRAND FORKS    CLEAR     63  47  55 SW10      29.69F
FARGO          CLEAR     68  41  37 SW10      29.75F
BUFFALO SD       N/A     65  42  43 NW6       29.80S
RAPID CITY     CLOUDY    53  40  61 W5        29.87S
$$

REGIONAL REPORTS...WYOMING/IDAHO/WASHINGTON

CITY           SKY/WX    TMP DP  RH WIND       PRES   REMARKS
GILLETTE       CLOUDY    49  41  74 CALM      29.92S
SHERIDAN       PTCLDY    51  41  68 CALM      29.90F
BUFFALO WY     CLOUDY    61  32  33 W8        29.96F
CODY           CLOUDY    63  34  34 SW16      29.94F
YELLOWSTONE LA   N/A     38  30  73 W3        30.12F
IDAHO FALLS    CLOUDY    57  38  48 NW8       29.86F
SALMON         MOCLDY    52  36  54 SW3       29.89R
BOISE          CLOUDY    58  49  72 W8        29.79S
SPOKANE        CLOUDY    57  49  74 N6        29.97R
$$

REGIONAL REPORTS...ALBERTA

CITY           SKY/WX    TMP DP  RH WIND       PRES   REMARKS
EDMONTON       PTCLDY    41  21  45 W7        30.13R
CALGARY        PTCLDY    45  37  76 VRB2      30.20R
LETHBRIDGE     CLOUDY    50  41  71 NW6       30.19R
MEDICINE HAT   CLOUDY    46  41  81 NW6       30.15S
WATERTON GATE    N/A     43  41  93 N5          N/A
MILK RIVER       N/A     46  45  93 W6          N/A
ONEFOUR          N/A     46  43  87 N14         N/A
$$

REGIONAL REPORTS...SASKATCHEWAN

CITY           SKY/WX    TMP DP  RH WIND       PRES   REMARKS
SWIFT CURRENT  MOCLDY    48  39  71 N12       30.07R
REGINA         PTCLDY    54  41  62 NW18      29.93R
SASKATOON      PTCLDY    41  36  81 NW9       30.07R
CYPRESS HILLS    N/A     41  36  81 N10G18      N/A
VAL MARIE        N/A     52  39  62 N18         N/A
ROCKGLEN         N/A     52  41  66 N15G23      N/A
$$




USA.gov is the U.S. government's official web portal to all federal, state and local government web resources and services.